QPF
0.00 0.00 0.00 0.00 0.00 0.00 0.00 0.00 0.00 0.00 0.00 0.00 0.00 0.00 0.00 0.00 0.00 0.00 0.00 0.00 0.00 0.00 0.00 0.00 0.00 0.00 0.00 0.00 0.00 0.01 0.01 0.01 0.01 0.01 0.02 0.02 0.02 0.02
0.00 0.00 0.00 0.00 0.00 0.00 0.00 0.00 0.00 0.00 0.00 0.00 0.00 0.00 0.00 0.00 0.00 0.00 0.00 0.00 0.00 0.00 0.00 0.00 0.00 0.00 0.01 0.01 0.01 0.01 0.01 0.01 0.02 0.02 0.03 0.03 0.03 0.03
0.00 0.00 0.00 0.00 0.00 0.00 0.00 0.00 0.00 0.00 0.00 0.00 0.00 0.00 0.00 0.00 0.00 0.00 0.00 0.00 0.00 0.00 0.00 0.00 0.00 0.00 0.01 0.01 0.01 0.01 0.01 0.01 0.01 0.02 0.02 0.03 0.03 0.03
0.00 0.00 0.00 0.00 0.00 0.00 0.00 0.00 0.00 0.00 0.00 0.00 0.00 0.00 0.00 0.00 0.00 0.00 0.00 0.00 0.00 0.00 0.00 0.00 0.00 0.01 0.01 0.01 0.01 0.01 0.01 0.00 0.00 0.01 0.01 0.01 0.02 0.02
0.00 0.00 0.00 0.00 0.00 0.00 0.00 0.00 0.00 0.00 0.00 0.00 0.00 0.00 0.00 0.00 0.00 0.00 0.00 0.00 0.00 0.00 0.00 0.00 0.00 0.00 0.01 0.01 0.00 0.00 0.00 0.00 0.00 0.00 0.00 0.01 0.01 0.01
0.00 0.00 0.00 0.00 0.00 0.00 0.00 0.00 0.00 0.00 0.00 0.00 0.00 0.00 0.00 0.00 0.00 0.00 0.00 0.00 0.00 0.00 0.00 0.00 0.00 0.00 0.00 0.00 0.01 0.01 0.01 0.00 0.00 0.00 0.00 0.00 0.00 0.01
0.00 0.00 0.00 0.00 0.01 0.00 0.00 0.00 0.00 0.00 0.00 0.00 0.00 0.00 0.00 0.00 0.01 0.01 0.01 0.00 0.00 0.00 0.00 0.00 0.00 0.00 0.00 0.00 0.00 0.01 0.01 0.00 0.00 0.00 0.00 0.00 0.00 0.00
0.00 0.00 0.00 0.00 0.00 0.00 0.00 0.00 0.00 0.00 0.00 0.01 0.01 0.01 0.01 0.01 0.01 0.01 0.01 0.01 0.01 0.00 0.00 0.00 0.00 0.00 0.00 0.00 0.00 0.00 0.00 0.00 0.00 0.00 0.00 0.00 0.00 0.00
0.00 0.00 0.00 0.00 0.00 0.00 0.00 0.00 0.00 0.00 0.01 0.02 0.01 0.01 0.01 0.01 0.01 0.01 0.01 0.01 0.01 0.00 0.00 0.00 0.00 0.00 0.00 0.00 0.00 0.00 0.00 0.00 0.00 0.00 0.00 0.00 0.00 0.00
0.00 0.00 0.00 0.00 0.00 0.00 0.00 0.00 0.00 0.00 0.00 0.01 0.01 0.01 0.01 0.01 0.01 0.01 0.01 0.01 0.00 0.00 0.01 0.01 0.00 0.00 0.00 0.00 0.00 0.00 0.00 0.00 0.00 0.00 0.00 0.00 0.00 0.00
0.00 0.00 0.00 0.00 0.00 0.00 0.00 0.00 0.00 0.00 0.00 0.00 0.00 0.00 0.01 0.01 0.01 0.01 0.01 0.02 0.02 0.01 0.00 0.01 0.00 0.00 0.00 0.00 0.00 0.00 0.00 0.01 0.01 0.01 0.01 0.00 0.00 0.00
0.00 0.00 0.00 0.00 0.00 0.00 0.00 0.00 0.00 0.00 0.00 0.00 0.00 0.00 0.01 0.01 0.01 0.01 0.02 0.03 0.03 0.02 0.02 0.02 0.02 0.01 0.01 0.00 0.00 0.00 0.01 0.01 0.01 0.01 0.01 0.00 0.00 0.00
0.00 0.00 0.00 0.00 0.00 0.00 0.00 0.00 0.00 0.00 0.00 0.00 0.01 0.01 0.01 0.01 0.01 0.01 0.01 0.02 0.03 0.03 0.02 0.04 0.04 0.04 0.04 0.02 0.01 0.00 0.01 0.01 0.01 0.01 0.01 0.01 0.01 0.01
0.00 0.00 0.00 0.00 0.00 0.00 0.00 0.00 0.00 0.01 0.01 0.01 0.01 0.01 0.01 0.01 0.01 0.01 0.01 0.01 0.01 0.02 0.02 0.03 0.05 0.05 0.05 0.05 0.02 0.01 0.01 0.01 0.02 0.02 0.02 0.02 0.01 0.01
0.00 0.00 0.00 0.00 0.01 0.01 0.01 0.01 0.01 0.01 0.01 0.01 0.02 0.01 0.01 0.01 0.00 0.00 0.00 0.00 0.01 0.01 0.01 0.01 0.02 0.03 0.04 0.04 0.04 0.03 0.03 0.03 0.03 0.03 0.03 0.02 0.02 0.02
0.00 0.00 0.00 0.01 0.01 0.02 0.02 0.01 0.01 0.01 0.02 0.01 0.01 0.01 0.01 0.00 0.00 0.00 0.00 0.00 0.00 0.00 0.00 0.01 0.01 0.02 0.03 0.02 0.04 0.04 0.04 0.05 0.05 0.04 0.03 0.04 0.03 0.03
0.00 0.00 0.01 0.01 0.02 0.02 0.02 0.02 0.02 0.01 0.01 0.01 0.01 0.00 0.00 0.00 0.00 0.00 0.00 0.00 0.00 0.01 0.01 0.00 0.01 0.01 0.02 0.02 0.03 0.05 0.05 0.05 0.05 0.05 0.05 0.05 0.06 0.06
0.01 0.01 0.02 0.02 0.03 0.03 0.02 0.02 0.02 0.02 0.01 0.01 0.00 0.00 0.00 0.00 0.00 0.00 0.00 0.00 0.00 0.01 0.00 0.00 0.00 0.00 0.01 0.02 0.03 0.05 0.05 0.05 0.05 0.05 0.04 0.04 0.06 0.07
0.01 0.01 0.03 0.04 0.04 0.03 0.03 0.03 0.02 0.02 0.01 0.00 0.00 0.00 0.00 0.00 0.00 0.00 0.00 0.00 0.00 0.00 0.00 0.00 0.00 0.00 0.01 0.02 0.03 0.04 0.05 0.04 0.04 0.04 0.04 0.03 0.04 0.06
0.01 0.01 0.03 0.03 0.03 0.03 0.03 0.02 0.02 0.02 0.01 0.00 0.00 0.00 0.00 0.00 0.00 0.00 0.00 0.00 0.00 0.00 0.01 0.01 0.01 0.01 0.01 0.02 0.04 0.04 0.04 0.03 0.03 0.03 0.03 0.03 0.03 0.05
0.01 0.01 0.01 0.01 0.01 0.02 0.02 0.02 0.01 0.01 0.01 0.01 0.00 0.00 0.00 0.00 0.00 0.00 0.00 0.00 0.01 0.01 0.01 0.01 0.01 0.01 0.01 0.01 0.02 0.04 0.04 0.04 0.04 0.04 0.03 0.03 0.03 0.03
0.01 0.01 0.01 0.01 0.01 0.01 0.01 0.01 0.01 0.01 0.01 0.01 0.01 0.00 0.00 0.00 0.00 0.00 0.00 0.00 0.00 0.01 0.01 0.01 0.01 0.01 0.01 0.01 0.02 0.03 0.04 0.03 0.03 0.03 0.03 0.02 0.02 0.03
0.01 0.01 0.01 0.01 0.01 0.01 0.00 0.00 0.00 0.01 0.01 0.01 0.01 0.01 0.01 0.00 0.00 0.00 0.00 0.00 0.00 0.00 0.00 0.00 0.00 0.00 0.01 0.01 0.01 0.01 0.01 0.01 0.01 0.01 0.02 0.03 0.04 0.05
MSLP
1023.18 1023.33 1023.48 1023.63 1023.74 1023.78 1023.73 1023.58 1023.34 1023.01 1022.62 1022.19 1021.74 1021.28 1020.84 1020.41 1020.01 1019.63 1019.28 1018.97 1018.68 1018.42 1018.19 1017.98 1017.79 1017.60 1017.42 1017.22 1017.02 1016.80 1016.59 1016.39 1016.21 1016.05 1015.93 1015.85 1015.80 1015.75
1023.51 1023.57 1023.65 1023.72 1023.77 1023.77 1023.70 1023.56 1023.35 1023.07 1022.73 1022.35 1021.93 1021.48 1021.03 1020.56 1020.09 1019.64 1019.20 1018.79 1018.41 1018.06 1017.76 1017.48 1017.23 1016.99 1016.76 1016.51 1016.26 1016.01 1015.77 1015.54 1015.35 1015.20 1015.10 1015.04 1015.02 1015.02
1023.74 1023.71 1023.68 1023.67 1023.64 1023.59 1023.50 1023.37 1023.19 1022.96 1022.67 1022.34 1021.96 1021.54 1021.08 1020.59 1020.08 1019.56 1019.04 1018.55 1018.10 1017.69 1017.32 1017.00 1016.70 1016.41 1016.13 1015.84 1015.55 1015.25 1014.97 1014.71 1014.50 1014.34 1014.24 1014.20 1014.20 1014.23
1023.89 1023.76 1023.64 1023.54 1023.44 1023.33 1023.21 1023.08 1022.92 1022.72 1022.49 1022.21 1021.87 1021.47 1021.01 1020.51 1019.96 1019.40 1018.83 1018.28 1017.78 1017.32 1016.91 1016.54 1016.21 1015.89 1015.56 1015.23 1014.89 1014.55 1014.22 1013.92 1013.67 1013.48 1013.37 1013.33 1013.35 1013.40
1024.00 1023.78 1023.57 1023.38 1023.21 1023.05 1022.89 1022.74 1022.59 1022.42 1022.21 1021.96 1021.65 1021.28 1020.83 1020.32 1019.76 1019.16 1018.57 1017.99 1017.45 1016.96 1016.53 1016.14 1015.78 1015.42 1015.07 1014.69 1014.30 1013.90 1013.52 1013.17 1012.87 1012.65 1012.52 1012.47 1012.49 1012.57
1024.09 1023.80 1023.52 1023.26 1023.02 1022.80 1022.60 1022.42 1022.24 1022.07 1021.88 1021.64 1021.34 1020.98 1020.54 1020.02 1019.45 1018.85 1018.25 1017.66 1017.11 1016.61 1016.17 1015.77 1015.39 1015.01 1014.62 1014.21 1013.76 1013.31 1012.87 1012.46 1012.11 1011.85 1011.69 1011.62 1011.65 1011.74
1024.16 1023.83 1023.50 1023.18 1022.87 1022.59 1022.34 1022.11 1021.90 1021.70 1021.48 1021.24 1020.94 1020.57 1020.13 1019.63 1019.06 1018.47 1017.87 1017.29 1016.75 1016.26 1015.82 1015.41 1015.02 1014.62 1014.20 1013.75 1013.25 1012.75 1012.24 1011.78 1011.39 1011.08 1010.89 1010.81 1010.84 1010.95
1024.22 1023.86 1023.50 1023.13 1022.76 1022.42 1022.09 1021.80 1021.54 1021.28 1021.03 1020.76 1020.45 1020.07 1019.63 1019.13 1018.59 1018.01 1017.43 1016.87 1016.36 1015.88 1015.45 1015.04 1014.65 1014.23 1013.78 1013.29 1012.75 1012.19 1011.64 1011.13 1010.69 1010.35 1010.13 1010.04 1010.07 1010.19
1024.24 1023.88 1023.48 1023.07 1022.65 1022.23 1021.84 1021.47 1021.14 1020.82 1020.52 1020.21 1019.88 1019.49 1019.06 1018.58 1018.06 1017.51 1016.97 1016.44 1015.95 1015.49 1015.07 1014.67 1014.26 1013.82 1013.35 1012.82 1012.24 1011.65 1011.06 1010.51 1010.04 1009.67 1009.43 1009.33 1009.36 1009.49
1024.22 1023.84 1023.42 1022.96 1022.48 1022.00 1021.53 1021.09 1020.68 1020.31 1019.96 1019.62 1019.26 1018.89 1018.47 1018.01 1017.52 1017.02 1016.51 1016.02 1015.55 1015.11 1014.69 1014.28 1013.86 1013.41 1012.90 1012.35 1011.74 1011.12 1010.50 1009.93 1009.43 1009.05 1008.80 1008.69 1008.72 1008.85
1024.14 1023.74 1023.29 1022.78 1022.25 1021.70 1021.16 1020.66 1020.19 1019.77 1019.38 1019.02 1018.66 1018.30 1017.91 1017.50 1017.05 1016.59 1016.12 1015.66 1015.21 1014.78 1014.36 1013.93 1013.49 1013.01 1012.48 1011.90 1011.28 1010.63 1010.00 1009.42 1008.91 1008.53 1008.27 1008.15 1008.17 1008.30
1024.01 1023.58 1023.08 1022.53 1021.94 1021.34 1020.74 1020.19 1019.68 1019.23 1018.83 1018.48 1018.14 1017.81 1017.46 1017.09 1016.70 1016.28 1015.85 1015.41 1014.97 1014.53 1014.10 1013.65 1013.18 1012.67 1012.11 1011.51 1010.88 1010.23 1009.59 1009.01 1008.51 1008.12 1007.86 1007.74 1007.75 1007.86
1023.84 1023.36 1022.82 1022.22 1021.58 1020.94 1020.31 1019.73 1019.21 1018.76 1018.37 1018.04 1017.74 1017.46 1017.16 1016.85 1016.50 1016.12 1015.72 1015.29 1014.85 1014.40 1013.94 1013.46 1012.95 1012.41 1011.84 1011.22 1010.58 1009.94 1009.31 1008.74 1008.26 1007.88 1007.62 1007.49 1007.48 1007.57
1023.64 1023.12 1022.53 1021.89 1021.22 1020.55 1019.91 1019.32 1018.81 1018.38 1018.03 1017.74 1017.50 1017.27 1017.03 1016.76 1016.46 1016.11 1015.72 1015.30 1014.85 1014.37 1013.88 1013.37 1012.83 1012.27 1011.67 1011.05 1010.42 1009.80 1009.19 1008.65 1008.18 1007.81 1007.55 1007.41 1007.37 1007.43
1023.44 1022.87 1022.24 1021.57 1020.88 1020.21 1019.57 1019.01 1018.53 1018.14 1017.83 1017.60 1017.40 1017.22 1017.03 1016.81 1016.53 1016.21 1015.82 1015.39 1014.93 1014.43 1013.91 1013.37 1012.81 1012.23 1011.64 1011.03 1010.41 1009.81 1009.25 1008.73 1008.29 1007.93 1007.67 1007.51 1007.45 1007.46
1023.25 1022.65 1021.99 1021.31 1020.62 1019.95 1019.34 1018.81 1018.37 1018.03 1017.77 1017.57 1017.42 1017.28 1017.12 1016.92 1016.66 1016.34 1015.95 1015.51 1015.03 1014.51 1013.98 1013.42 1012.86 1012.29 1011.71 1011.13 1010.55 1009.99 1009.47 1008.99 1008.57 1008.23 1007.97 1007.80 1007.70 1007.65
1023.08 1022.46 1021.80 1021.12 1020.45 1019.81 1019.24 1018.74 1018.34 1018.03 1017.80 1017.64 1017.50 1017.37 1017.22 1017.02 1016.75 1016.43 1016.04 1015.59 1015.10 1014.58 1014.05 1013.51 1012.96 1012.42 1011.88 1011.34 1010.82 1010.31 1009.84 1009.40 1009.01 1008.69 1008.43 1008.23 1008.09 1007.99
1022.95 1022.33 1021.68 1021.02 1020.38 1019.79 1019.25 1018.79 1018.42 1018.12 1017.90 1017.73 1017.59 1017.44 1017.26 1017.04 1016.76 1016.42 1016.02 1015.57 1015.09 1014.60 1014.09 1013.58 1013.08 1012.59 1012.11 1011.64 1011.18 1010.73 1010.31 1009.92 1009.56 1009.25 1008.99 1008.77 1008.58 1008.43
1022.86 1022.27 1021.66 1021.04 1020.44 1019.88 1019.37 1018.93 1018.57 1018.27 1018.03 1017.83 1017.64 1017.45 1017.22 1016.96 1016.65 1016.29 1015.89 1015.46 1015.01 1014.55 1014.09 1013.65 1013.21 1012.80 1012.39 1011.99 1011.59 1011.21 1010.84 1010.49 1010.16 1009.86 1009.59 1009.35 1009.12 1008.92
1022.86 1022.31 1021.74 1021.16 1020.60 1020.08 1019.59 1019.16 1018.78 1018.45 1018.16 1017.90 1017.65 1017.39 1017.10 1016.79 1016.45 1016.07 1015.67 1015.26 1014.86 1014.46 1014.07 1013.71 1013.36 1013.02 1012.69 1012.36 1012.04 1011.71 1011.38 1011.06 1010.75 1010.46 1010.18 1009.92 1009.66 1009.41
1022.95 1022.45 1021.92 1021.40 1020.87 1020.37 1019.89 1019.45 1019.04 1018.66 1018.30 1017.96 1017.63 1017.28 1016.93 1016.57 1016.19 1015.80 1015.42 1015.05 1014.70 1014.37 1014.06 1013.78 1013.52 1013.27 1013.01 1012.75 1012.48 1012.19 1011.90 1011.60 1011.30 1011.01 1010.72 1010.44 1010.17 1009.89
1023.15 1022.69 1022.21 1021.72 1021.22 1020.73 1020.25 1019.78 1019.33 1018.88 1018.45 1018.03 1017.60 1017.18 1016.77 1016.35 1015.95 1015.56 1015.20 1014.87 1014.58 1014.33 1014.11 1013.91 1013.72 1013.54 1013.35 1013.14 1012.90 1012.65 1012.37 1012.08 1011.78 1011.48 1011.19 1010.90 1010.62 1010.34
1023.43 1023.01 1022.57 1022.11 1021.63 1021.14 1020.64 1020.14 1019.64 1019.13 1018.62 1018.12 1017.62 1017.13 1016.65 1016.20 1015.78 1015.40 1015.07 1014.79 1014.56 1014.38 1014.23 1014.10 1013.98 1013.85 1013.70 1013.53 1013.31 1013.06 1012.79 1012.50 1012.20 1011.90 1011.61 1011.33 1011.05 1010.79
Thickness
5577 5573 5568 5564 5561 5557 5552 5548 5542 5536 5533 5532 5528 5526 5522 5520 5516 5513 5509 5506 5503 5500 5498 5495 5493 5491 5489 5488 5487 5485 5484 5483 5483 5482 5483 5484 5486 5488
5560 5556 5552 5548 5544 5540 5536 5530 5525 5520 5516 5514 5511 5508 5505 5502 5499 5496 5493 5490 5488 5485 5482 5480 5478 5477 5475 5474 5473 5471 5470 5469 5469 5469 5469 5470 5471 5473
5543 5540 5536 5533 5528 5524 5520 5515 5510 5505 5500 5498 5495 5493 5490 5487 5485 5482 5479 5477 5474 5471 5469 5467 5465 5464 5462 5461 5460 5459 5459 5458 5458 5458 5458 5459 5459 5461
5526 5524 5521 5518 5513 5509 5504 5500 5495 5490 5486 5482 5479 5476 5474 5472 5471 5468 5466 5463 5461 5459 5457 5455 5454 5453 5452 5451 5450 5449 5448 5448 5448 5448 5448 5449 5450 5451
5509 5507 5504 5501 5497 5493 5490 5485 5481 5477 5472 5468 5466 5463 5460 5459 5457 5455 5453 5450 5449 5448 5446 5445 5444 5443 5442 5441 5440 5440 5439 5439 5440 5440 5440 5440 5441 5443
5494 5492 5490 5487 5484 5480 5476 5472 5467 5462 5459 5455 5453 5450 5448 5448 5445 5442 5442 5440 5439 5438 5437 5436 5435 5434 5434 5433 5433 5433 5433 5433 5433 5433 5433 5434 5434 5435
5479 5478 5476 5475 5472 5468 5465 5459 5455 5450 5447 5444 5442 5440 5439 5437 5434 5433 5433 5433 5432 5431 5430 5428 5427 5427 5426 5426 5426 5427 5427 5427 5427 5427 5427 5428 5428 5429
5463 5463 5462 5461 5458 5455 5452 5449 5446 5442 5438 5436 5434 5433 5433 5431 5429 5428 5427 5426 5427 5426 5422 5422 5422 5421 5421 5421 5422 5422 5422 5422 5422 5422 5422 5422 5423 5423
5449 5448 5449 5448 5445 5442 5440 5439 5437 5435 5434 5431 5429 5428 5428 5428 5427 5426 5424 5421 5421 5421 5418 5419 5418 5417 5418 5418 5418 5418 5418 5417 5417 5417 5417 5418 5418 5419
5436 5436 5435 5435 5434 5432 5431 5430 5430 5430 5430 5429 5427 5427 5427 5427 5425 5423 5422 5420 5418 5417 5415 5414 5415 5414 5415 5415 5415 5415 5414 5414 5413 5413 5414 5414 5415 5415
5425 5425 5426 5426 5426 5425 5424 5424 5425 5428 5430 5429 5429 5428 5428 5427 5426 5423 5420 5417 5417 5416 5414 5410 5411 5411 5411 5412 5412 5412 5411 5410 5410 5411 5411 5412 5412 5412
5414 5416 5418 5419 5420 5420 5420 5421 5422 5426 5428 5429 5429 5429 5428 5427 5426 5422 5419 5416 5415 5415 5413 5410 5409 5407 5409 5409 5409 5409 5408 5409 5409 5409 5410 5411 5411 5410
5406 5409 5412 5414 5416 5419 5421 5422 5424 5426 5427 5428 5428 5428 5428 5426 5425 5423 5419 5415 5413 5412 5411 5408 5407 5405 5403 5405 5406 5407 5406 5406 5407 5408 5409 5410 5410 5409
5400 5404 5408 5412 5416 5419 5422 5425 5427 5428 5428 5428 5427 5427 5426 5425 5424 5422 5420 5417 5414 5412 5410 5407 5405 5404 5403 5402 5402 5404 5405 5405 5405 5406 5407 5408 5408 5408
5398 5403 5408 5412 5416 5420 5423 5426 5428 5428 5428 5427 5426 5426 5425 5424 5423 5421 5420 5417 5415 5413 5411 5408 5405 5403 5401 5399 5399 5399 5401 5403 5404 5404 5405 5406 5406 5405
5398 5403 5409 5413 5417 5421 5424 5427 5429 5429 5429 5427 5426 5426 5425 5423 5421 5418 5416 5414 5412 5411 5411 5409 5406 5402 5399 5397 5396 5397 5398 5399 5401 5402 5403 5403 5404 5404
5398 5403 5408 5413 5417 5421 5425 5428 5430 5431 5430 5429 5427 5425 5424 5422 5420 5418 5415 5413 5410 5409 5408 5408 5407 5404 5399 5395 5395 5395 5396 5397 5398 5399 5401 5401 5402 5403
5400 5403 5408 5412 5416 5420 5424 5427 5430 5431 5431 5430 5428 5426 5423 5421 5419 5417 5415 5412 5410 5408 5406 5405 5404 5403 5400 5398 5393 5393 5394 5395 5396 5397 5399 5399 5399 5399
5402 5405 5409 5413 5418 5422 5425 5428 5430 5432 5432 5431 5429 5427 5425 5422 5419 5417 5415 5412 5410 5408 5406 5404 5402 5400 5399 5397 5396 5392 5393 5394 5395 5396 5397 5397 5397 5397
5404 5407 5411 5416 5420 5423 5426 5429 5431 5433 5433 5432 5430 5428 5426 5423 5421 5418 5416 5414 5411 5409 5407 5405 5403 5401 5398 5395 5394 5393 5393 5394 5395 5396 5397 5397 5398 5399
5407 5411 5414 5418 5422 5425 5428 5430 5432 5432 5433 5432 5431 5430 5428 5425 5423 5421 5418 5416 5413 5410 5408 5407 5405 5403 5401 5400 5398 5396 5395 5395 5396 5397 5399 5400 5401 5401
5410 5414 5417 5421 5424 5427 5429 5431 5432 5433 5433 5433 5432 5432 5431 5429 5426 5424 5421 5418 5415 5412 5411 5409 5408 5406 5404 5402 5400 5399 5399 5399 5400 5400 5401 5402 5402 5403
5413 5416 5419 5423 5425 5428 5430 5431 5432 5433 5433 5432 5433 5433 5433 5431 5430 5428 5425 5422 5419 5416 5413 5411 5410 5408 5406 5404 5403 5402 5403 5403 5403 5404 5404 5403 5404 5405